Regional Weather Roundup
Issued by NWS

Home | Current Version | Previous Version | Text Only | Print | Product List | Glossary Off
Versions: 1 2 3 4 5 6 7 8 9 10 11 12 13 14 15 16 17 18 19 20 21 22 23 24 25 26 27 28 29 30 31 32 33 34 35 36 37 38 39 40 41 42 43 44 45 46 47 48 49 50

821
ASUS43 KMKX 251420
RWRWI

WISCONSIN REGIONAL WEATHER ROUNDUP
NATIONAL WEATHER SERVICE MILWAUKEE/SULLIVAN WI
900 AM CDT WED APR 25 2018

NOTE: "FAIR" INDICATES FEW OR NO CLOUDS BELOW 12,000 FEET WITH NO
SIGNIFICANT WEATHER AND/OR OBSTRUCTIONS TO VISIBILITY.

WIZ001-002-006>008-014>016-023>028-251500-
NORTHWEST WISCONSIN

CITY           SKY/WX    TMP DP  RH WIND       PRES   REMARKS
SUPERIOR ARPT  FAIR      37  25  60 CALM      30.26F
ASHLAND        FAIR      39  25  57 NE5       30.26S
HAYWARD        FAIR      38  26  62 NE6       30.23F WCI  33
SIREN          FAIR      39  25  56 NE3       30.25F
CUMBERLAND     FAIR      36  27  69 E7        30.23F WCI  30
RICE LAKE      FAIR      38  27  64 NE5       30.24F WCI  35
CHETEK         FAIR      39  28  63 NE3       30.23F
LADYSMITH      FAIR      40  28  63 NE7       30.23S WCI  35
EAU CLAIRE     FAIR      40  27  59 NE9       30.22F WCI  34
MENOMONIE      FAIR      42  27  55 E7        30.23F
NEW RICHMOND   FAIR      40  26  58 NE6       30.24S
OSCEOLA        FAIR      40  27  57 E5        30.28S
$$

WIZ003>005-009-010-017-018-251500-
NORTH CENTRAL WISCONSIN

CITY           SKY/WX    TMP DP  RH WIND       PRES   REMARKS
MANITOWISH WTR FAIR      33  27  79 N6        30.20S WCI  27
ARBOR VITAE    FAIR      37  31  79 N5        30.19F WCI  33
WOODRUFF       FAIR      37  31  79 N5        30.19F WCI  33
RHINELANDER    FAIR      35  28  75 NE6       30.19F WCI  30
EAGLE RIVER    FAIR      34  26  71 NE9       30.17F WCI  27
LAND O LAKES   FAIR      34  25  70 N8        30.19F WCI  27
PHILLIPS       FAIR      36  28  72 NE8       30.21S WCI  30
TOMAHAWK       FAIR      34  29  80 NE5       30.20F WCI  30
MEDFORD        FAIR      36  28  73 NE8       30.18F WCI  29
MERRILL        FAIR      37  29  73 N8        30.20F WCI  30
$$

WIZ029-030-035-036-043>047-251500-
CENTRAL WISCONSIN

CITY           SKY/WX    TMP DP  RH WIND       PRES   REMARKS
WAUSAU         FAIR      37  28  70 NE8       30.18F WCI  31
MOSINEE        SUNNY     37  30  75 NE8       30.20R WCI  31
MARSHFIELD     FAIR      39  29  67 NE12      30.18F WCI  32
STEVENS POINT  FAIR      38  28  67 N9        30.19F WCI  31
WAUPACA        FAIR      43  30  59 N7        30.19F
WAUTOMA        FAIR      42  29  59 NE10      30.18F
WISC RAPIDS    FAIR      42  27  55 N10       30.20F
CAMP DOUGLAS   SUNNY     43  32  65 NE6       30.18F
$$

WIZ011>013-019>022-031-037>040-048>050-251500-
NORTHEAST WISCONSIN

CITY           SKY/WX    TMP DP  RH WIND       PRES   REMARKS
ANTIGO         FAIR      34  28  78 N7        30.18F WCI  28
SHAWANO        FAIR      42  30  63 N7        30.18F
OCONTO         FAIR      40  29  64 N9G17     30.17F WCI  34
STURGEON BAY   FAIR      37  30  75 N16       30.17S WCI  28
GREEN BAY      FAIR      42  30  62 N14       30.17F
MANITOWOC      FAIR      41  31  67 N15G21    30.15F
APPLETON       SUNNY     39  27  60 N17       30.16R WCI  30
CLINTONVILLE   FAIR      41  28  58 NE8       30.18F
OSHKOSH        FAIR      42  31  64 N12       30.17S
$$

WIZ032>034-041-042-053>061-251500-
SOUTHWEST WISCONSIN

CITY           SKY/WX    TMP DP  RH WIND       PRES   REMARKS
LA CROSSE      FAIR      45  34  65 NW6       30.21S
SPARTA         FAIR      42  35  75 N3        30.20F
VIROQUA        FAIR      44  38  82 N6        30.18S
BOSCOBEL       FAIR      49  36  61 CALM      30.20R
PRAIRIE DU CHI FAIR      47  34  60 CALM      30.20R
PLATTEVILLE    FAIR      48  39  71 NE6       30.17S
$$

WIZ056-057-062-063-064-067-068-251500-
SOUTH CENTRAL WISCONSIN

CITY           SKY/WX    TMP DP  RH WIND       PRES   REMARKS
REEDSBURG      FAIR      45  35  67 N6        30.17S
BARABOO/DELLS  FAIR      43  32  64 NE8       30.17S
LONE ROCK      FAIR      48  37  65 NE8       30.18R
MINERAL POINT  FAIR      48  37  66 NE3       30.16R
MADISON        FAIR      46  35  65 NE14      30.15S
MIDDLETON      FAIR      47  36  66 NE9       30.16S
WATERTOWN      FAIR      44  37  76 N10       30.14S
MONROE         FAIR      46  32  57 NE10      30.15R
JANESVILLE     SUNNY     48  34  57 NE12      30.14R
$$

WIZ051-052-058>065-066-070>072-251500-
SOUTHEAST WISCONSIN

CITY           SKY/WX    TMP DP  RH WIND       PRES   REMARKS
MILWAUKEE      FAIR      46  31  55 N20G28    30.13S
WAUKESHA       SUNNY     45  30  57 N13       30.13R
MILWAUKEE/TIMM SUNNY     46  28  49 N15       30.13R
RACINE         FAIR      44  32  62 N21G32    30.14S
BURLINGTON     FAIR      47  32  54 NE9       30.12S
KENOSHA        FAIR      47  31  53 N18G25    30.12S
FOND DU LAC    FAIR      41  32  70 N15       30.17S
SHEBOYGAN      FAIR      44  33  65 N14       30.14F
WEST BEND      FAIR      45  30  57 N12       30.14F
JUNEAU         FAIR      42  32  68 N15       30.15F
$$

LSZ147-162-251500-
LAKE SUPERIOR

STATION/POSITION TIME  TEMP    WIND        PRES    WAVE
                       AIR SEA DIR/SP/G            HT/PER
                 (UTC) (F)     (DEG/KT/KT) (MB)    (FT/S)
DEVILS ISLAND    1400   35      10/  4/  4 1025.5F
SAXON HARBOR     1330   36      CALM  /  2 1024.0S
$$

LMZ867-665-643>646-251500-
LAKE MICHIGAN

STATION/POSITION TIME  TEMP    WIND        PRES    WAVE
                       AIR SEA DIR/SP/G            HT/PER
                 (UTC) (F)     (DEG/KT/KT) (MB)    (FT/S)
NORTHPORT PIER   1340   35                 1021.0S
KEWAUNEE LAKESHO 1354   40     350/ 12/ 18 1020.2F
SHEBOYGAN LAKESH 1400   40     360/ 14/ 16 1021.1F
PORT WASHINGTON  1340   45     360/  8/ 17 1021.7S
MILWAUKEE LAKESH 1400   43     350/ 18/ 24   N/A
KENOSHA   LAKESH 1400   41                 1020.0
$$

TC  - TEMPERATURE IN CELSIUS
VSB - VISIBILITY IN STATUTE MILES
WCI - WIND CHILL INDEX
HX  - HEAT INDEX





USA.gov is the U.S. government's official web portal to all federal, state and local government web resources and services.